[Date Prev][Date Next][Thread Prev][Thread Next] - [Date Index][Thread Index][Author Index]
2 Line ISS Keps 7-2
- Subject: [sarex] 2 Line ISS Keps 7-2
- From: "Dave Larsen PhD" <doc@xxxxxxxxxxx>
- Date: Wed, 2 Jul 2003 05:37:00 -0700
ISS
1 25544U 98067A 03183.48216193 .00012784 00000-0 16047-3 0 1826
2 25544 51.6334 303.3168 0007689 324.8088 123.0581 15.60082807263391
----
Via the sarex mailing list at AMSAT.ORG courtesy of AMSAT-NA.
To unsubscribe, send "unsubscribe sarex" to Majordomo@amsat.org
AMSAT Home